Change the Weather History Date:

Wednesday, January 1, 2014

  Actual Average Record
Temperature  
Mean Temperature -8 °F -  
Max Temperature 2 °F 21 °F 37 °F (1944)
Min Temperature -18 °F 3 °F -34 °F (1968)
Degree Days  
Heating Degree Days 73    
Moisture  
Dew Point -11 °F    
Average Humidity 75    
Maximum Humidity 83    
Minimum Humidity 66    
Precipitation  
Precipitation 0.00 in - - ()
Sea Level Pressure  
Sea Level Pressure 30.31 in    
Wind  
Wind Speed 1 mph (NNE)    
Max Wind Speed 6 mph    
Max Gust Speed -    
Visibility 10 miles    
Events      
Averages and records for this station are not official NWS values.
T = Trace of Precipitation, MM = Missing Value Source: NWS Daily Summary

Daily Weather History Graph

Daily Weather History Graph

Search for Another Location

Airport or City:

Trip Planner

Search our weather history database for the weather conditions in past years. The results will help you decide how hot, cold, wet, or windy it might be!

Date:

Astronomy

Jan. 01, 2014 Rise Set
Actual Time 7:40 AM CST 4:24 PM CST
Civil Twilight 7:06 AM CST 4:59 PM CST
Nautical Twilight 6:28 AM CST 5:36 PM CST
Astronomical Twilight 5:52 AM CST 6:13 PM CST
Moon 7:27 AM CST (1/1) 5:14 PM CST (1/1)
Length of Visible Light 9h 52m
Length of Day
8h 44m
New Moon, 0% of the Moon is Illuminated
Jan 1
New Moon
Jan 7
First Quarter
Jan 15
Full
Jan 23
Last Quarter
Jan 30
New

Hourly Weather History & Observations

Time (CST) Temp. Windchill Dew Point Humidity Pressure Visibility Wind Dir Wind Speed Gust Speed Precip Events Conditions
12:15 AM -18.8 °F - -24.9 °F 74% 30.28 in 10.0 mi Calm Calm - N/A   Clear
12:35 AM -18.8 °F - -24.9 °F 74% 30.27 in 10.0 mi Calm Calm - N/A   Scattered Clouds
12:55 AM -18.8 °F - -24.9 °F 74% 30.27 in 7.0 mi Calm Calm - N/A   Clear
1:15 AM -18.2 °F -28.7 °F -24.5 °F 73% 30.27 in 10.0 mi North 3.5 mph - N/A   Clear
1:35 AM -17.5 °F - -24.0 °F 72% 30.27 in 10.0 mi Calm Calm - N/A   Scattered Clouds
1:55 AM -15.0 °F - -20.6 °F 76% 30.27 in 10.0 mi Calm Calm - N/A   Scattered Clouds
2:15 AM -16.2 °F - -22.4 °F 74% 30.28 in 10.0 mi Calm Calm - N/A   Scattered Clouds
2:35 AM -14.6 °F - -20.2 °F 76% 30.29 in 10.0 mi Calm Calm - N/A   Mostly Cloudy
2:55 AM -11.6 °F - -17.1 °F 76% 30.29 in 10.0 mi Calm Calm - N/A   Overcast
3:15 AM -11.2 °F - -17.0 °F 76% 30.28 in 10.0 mi Calm Calm - N/A   Overcast
3:35 AM -8.7 °F - -14.8 °F 75% 30.28 in 10.0 mi Calm Calm - N/A   Mostly Cloudy
3:55 AM -8.7 °F - -14.3 °F 77% 30.28 in 10.0 mi Calm Calm - N/A   Mostly Cloudy
4:15 AM -8.7 °F -20.0 °F -14.8 °F 75% 30.28 in 10.0 mi North 4.6 mph - N/A   Mostly Cloudy
4:35 AM -9.4 °F -18.6 °F -15.2 °F 76% 30.28 in 10.0 mi North 3.5 mph - N/A   Scattered Clouds
4:55 AM -13.2 °F -25.3 °F -18.8 °F 76% 30.27 in 10.0 mi North 4.6 mph - N/A   Clear
5:15 AM -12.5 °F -24.4 °F -18.4 °F 75% 30.27 in 10.0 mi North 4.6 mph - N/A   Clear
5:35 AM -12.1 °F -25.9 °F -17.9 °F 76% 30.28 in 10.0 mi North 5.8 mph - N/A   Scattered Clouds
5:55 AM -11.2 °F -20.6 °F -16.8 °F 76% 30.28 in 10.0 mi North 3.5 mph - N/A   Mostly Cloudy
6:15 AM -8.7 °F -17.8 °F -14.3 °F 77% 30.29 in 10.0 mi North 3.5 mph - N/A   Overcast
6:35 AM -8.7 °F - -14.1 °F 77% 30.29 in 10.0 mi Calm Calm - N/A   Overcast
6:55 AM -8.7 °F - -14.3 °F 77% 30.30 in 10.0 mi Calm Calm - N/A   Overcast
7:15 AM -8.7 °F - -14.1 °F 77% 30.31 in 10.0 mi Calm Calm - N/A   Overcast
7:35 AM -8.7 °F - -14.1 °F 77% 30.32 in 10.0 mi Calm Calm - N/A   Overcast
7:55 AM -8.7 °F - -14.1 °F 77% 30.32 in 10.0 mi Calm Calm - N/A   Overcast
8:15 AM -8.7 °F - -14.3 °F 77% 30.32 in 10.0 mi Calm Calm - N/A   Mostly Cloudy
8:35 AM -8.7 °F - -14.1 °F 77% 30.33 in 10.0 mi Calm Calm - N/A   Mostly Cloudy
8:55 AM -8.3 °F - -13.7 °F 77% 30.34 in 10.0 mi Calm Calm - N/A   Mostly Cloudy
9:15 AM -6.2 °F - -11.4 °F 78% 30.34 in 10.0 mi Calm Calm - N/A   Mostly Cloudy
9:35 AM -6.2 °F - -11.4 °F 78% 30.34 in 10.0 mi Calm Calm - N/A   Overcast
9:55 AM -3.6 °F - -8.5 °F 80% 30.35 in 10.0 mi Calm Calm - N/A   Overcast
10:15 AM -3.6 °F - -8.5 °F 80% 30.36 in 10.0 mi Calm Calm - N/A   Mostly Cloudy
10:35 AM -2.4 °F - -7.6 °F 78% 30.37 in 10.0 mi Calm Calm - N/A   Mostly Cloudy
10:55 AM -1.3 °F - -6.2 °F 80% 30.37 in 10.0 mi Calm Calm - N/A   Mostly Cloudy
11:15 AM 1.0 °F - -4.4 °F 78% 30.35 in 7.0 mi Calm Calm - N/A   Overcast
11:35 AM 1.4 °F - -4.4 °F 77% 30.35 in 10.0 mi Calm Calm - N/A   Overcast
11:55 AM 1.4 °F - -5.1 °F 74% 30.34 in 10.0 mi Calm Calm - N/A   Overcast
12:15 PM 1.4 °F -6.2 °F -6.0 °F 71% 30.33 in 10.0 mi NNE 3.5 mph - N/A   Mostly Cloudy
12:35 PM 2.5 °F -5.0 °F -5.4 °F 70% 30.32 in 10.0 mi NE 3.5 mph - N/A   Mostly Cloudy
12:55 PM 2.7 °F -6.8 °F -5.8 °F 68% 30.32 in 10.0 mi ENE 4.6 mph - N/A   Mostly Cloudy
1:15 PM 2.7 °F -4.8 °F -6.2 °F 67% 30.32 in 10.0 mi ENE 3.5 mph - N/A   Mostly Cloudy
1:35 PM 2.7 °F - -6.3 °F 66% 30.32 in 10.0 mi Calm Calm - N/A   Mostly Cloudy
1:55 PM 2.7 °F -4.8 °F -6.5 °F 66% 30.31 in 10.0 mi NE 3.5 mph - N/A   Overcast
2:15 PM 2.7 °F - -6.3 °F 66% 30.31 in 10.0 mi Calm Calm - N/A   Overcast
2:35 PM 2.7 °F - -6.2 °F 67% 30.30 in 10.0 mi Calm Calm - N/A   Overcast
2:55 PM 2.8 °F -4.6 °F -6.2 °F 66% 30.30 in 10.0 mi North 3.5 mph - N/A   Overcast
3:15 PM 2.7 °F -6.8 °F -6.0 °F 67% 30.31 in 10.0 mi North 4.6 mph - N/A   Mostly Cloudy
3:35 PM 2.7 °F - -5.8 °F 68% 30.31 in 10.0 mi Calm Calm - N/A   Overcast
3:55 PM 2.7 °F -6.8 °F -6.2 °F 67% 30.31 in 10.0 mi North 4.6 mph - N/A   Overcast
4:15 PM 2.7 °F - -6.2 °F 67% 30.31 in 10.0 mi Calm Calm - N/A   Overcast
4:35 PM 2.7 °F - -5.6 °F 68% 30.31 in 10.0 mi Calm Calm - N/A   Overcast
4:55 PM 2.7 °F - -5.8 °F 68% 30.32 in 10.0 mi Calm Calm - N/A   Overcast
5:15 PM 2.3 °F - -5.8 °F 69% 30.32 in 10.0 mi Calm Calm - N/A   Overcast
5:35 PM 2.1 °F - -5.4 °F 71% 30.32 in 10.0 mi Calm Calm - N/A   Overcast
5:55 PM 2.1 °F - -5.4 °F 71% 30.33 in 10.0 mi Calm Calm - N/A   Overcast
6:15 PM 1.8 °F - -5.6 °F 71% 30.33 in 10.0 mi Calm Calm - N/A   Overcast
6:35 PM 1.4 °F - -5.4 °F 73% 30.33 in 10.0 mi Calm Calm - N/A   Overcast
6:55 PM 1.4 °F - -5.3 °F 74% 30.33 in 10.0 mi Calm Calm - N/A   Overcast
7:15 PM 1.4 °F - -5.1 °F 74% 30.32 in 10.0 mi Calm Calm - N/A   Overcast
7:35 PM 1.4 °F - -4.9 °F 75% 30.32 in 10.0 mi Calm Calm - N/A   Overcast
7:55 PM 1.4 °F - -4.4 °F 77% 30.32 in 10.0 mi Calm Calm - N/A   Overcast
8:15 PM 1.4 °F - -4.2 °F 77% 30.32 in 10.0 mi Calm Calm - N/A   Overcast
8:35 PM 1.4 °F - -4.2 °F 77% 30.32 in 5.0 mi Calm Calm - N/A   Haze
8:55 PM -1.1 °F -9.1 °F -6.2 °F 79% 30.31 in 10.0 mi North 3.5 mph - N/A   Overcast
9:15 PM -1.3 °F -9.3 °F -5.8 °F 81% 30.31 in 10.0 mi North 3.5 mph - N/A   Mostly Cloudy
9:35 PM -2.7 °F - -7.4 °F 80% 30.31 in 10.0 mi Calm Calm - N/A   Scattered Clouds
9:55 PM -1.3 °F - -5.8 °F 81% 30.30 in 10.0 mi Calm Calm - N/A   Scattered Clouds
10:15 PM -3.6 °F - -7.8 °F 82% 30.30 in 10.0 mi Calm Calm - N/A   Mostly Cloudy
10:35 PM -3.6 °F - -7.6 °F 83% 30.30 in 10.0 mi Calm Calm - N/A   Mostly Cloudy
10:55 PM -3.6 °F - -7.6 °F 83% 30.30 in 10.0 mi Calm Calm - N/A   Scattered Clouds
11:15 PM -5.4 °F - -9.8 °F 82% 30.30 in 10.0 mi Calm Calm - N/A   Clear
11:35 PM -8.7 °F - -13.7 °F 79% 30.30 in 10.0 mi Calm Calm - N/A   Scattered Clouds
11:55 PM -6.7 °F - -11.4 °F 80% 30.30 in 10.0 mi Calm Calm - N/A   Overcast